Total_Precipitation_Accumulation
0.05 0.11 0.32 0.58 1.09 1.54 1.28 0.65 0.49 0.35 0.32 0.44 0.42 0.32 0.34 0.44 0.62 0.97 0.52 0.39 0.20 0.10 0.11 0.20 0.25 0.21 0.24 0.26 0.27 0.29 0.28 0.28 0.28 0.28 0.29 0.33 0.35 0.33 0.33 0.35 0.37 0.40 0.43 0.44 0.44 0.41 0.36 0.33 0.33
0.07 0.17 0.39 0.78 1.47 1.77 1.11 0.50 0.37 0.30 0.36 0.43 0.35 0.28 0.32 0.30 0.27 0.25 0.31 0.39 0.18 0.08 0.09 0.10 0.18 0.19 0.18 0.22 0.25 0.27 0.26 0.26 0.28 0.29 0.29 0.31 0.33 0.35 0.35 0.36 0.36 0.40 0.41 0.36 0.36 0.34 0.29 0.27 0.27
0.11 0.19 0.48 0.84 1.11 1.18 0.62 0.30 0.27 0.27 0.38 0.41 0.33 0.29 0.33 0.37 0.34 0.29 0.23 0.23 0.14 0.08 0.09 0.11 0.15 0.15 0.15 0.17 0.21 0.24 0.23 0.24 0.26 0.26 0.27 0.30 0.32 0.36 0.37 0.38 0.38 0.38 0.36 0.33 0.36 0.33 0.29 0.26 0.27
0.14 0.26 0.47 0.66 0.73 0.60 0.35 0.24 0.23 0.27 0.38 0.33 0.29 0.38 0.43 0.48 0.31 0.26 0.21 0.16 0.12 0.10 0.10 0.12 0.15 0.14 0.14 0.16 0.18 0.21 0.24 0.26 0.26 0.24 0.26 0.28 0.34 0.36 0.34 0.35 0.36 0.35 0.32 0.32 0.31 0.28 0.28 0.27 0.29
0.16 0.35 0.55 0.63 0.54 0.36 0.27 0.24 0.25 0.25 0.24 0.31 0.35 0.54 0.60 0.56 0.34 0.39 0.38 0.24 0.11 0.11 0.13 0.15 0.17 0.15 0.15 0.17 0.18 0.20 0.21 0.24 0.25 0.23 0.25 0.28 0.33 0.33 0.32 0.32 0.33 0.31 0.27 0.28 0.31 0.31 0.27 0.30 0.33
0.20 0.33 0.42 0.46 0.35 0.23 0.25 0.24 0.21 0.21 0.26 0.36 0.46 0.48 0.64 0.59 0.47 0.64 0.57 0.41 0.22 0.17 0.20 0.23 0.25 0.22 0.20 0.19 0.19 0.20 0.22 0.23 0.25 0.26 0.26 0.27 0.30 0.32 0.32 0.32 0.34 0.31 0.28 0.27 0.30 0.31 0.30 0.33 0.37
0.18 0.23 0.27 0.26 0.23 0.19 0.19 0.18 0.19 0.20 0.34 0.45 0.50 0.59 0.78 0.87 0.66 0.65 0.72 0.67 0.43 0.40 0.49 0.42 0.31 0.27 0.28 0.27 0.26 0.24 0.27 0.29 0.29 0.30 0.28 0.30 0.31 0.33 0.33 0.35 0.36 0.35 0.33 0.32 0.30 0.29 0.31 0.35 0.40
0.10 0.12 0.14 0.13 0.13 0.15 0.12 0.14 0.18 0.21 0.29 0.46 0.57 0.72 1.02 0.97 0.80 0.80 0.85 0.98 0.74 0.60 0.61 0.57 0.44 0.41 0.33 0.28 0.28 0.31 0.34 0.36 0.33 0.30 0.31 0.33 0.33 0.36 0.39 0.39 0.47 0.47 0.49 0.51 0.48 0.41 0.39 0.44 0.49
0.05 0.11 0.10 0.08 0.07 0.09 0.08 0.11 0.17 0.23 0.30 0.36 0.58 0.77 0.80 0.73 0.92 0.99 1.14 1.36 1.32 1.04 0.92 0.79 0.53 0.45 0.44 0.38 0.34 0.43 0.45 0.43 0.45 0.46 0.43 0.58 0.76 0.76 0.85 0.70 0.79 0.76 0.79 0.79 0.80 0.75 0.72 0.74 0.65
0.05 0.08 0.07 0.04 0.04 0.06 0.06 0.08 0.15 0.32 0.49 0.73 0.98 0.95 0.73 0.74 1.05 1.24 1.42 1.69 1.73 1.57 1.37 1.13 0.83 0.64 0.58 0.51 0.55 0.66 0.66 0.77 0.81 0.96 1.01 1.27 1.49 1.43 1.04 1.09 1.30 1.35 1.36 1.30 1.33 1.46 1.32 1.16 1.01
0.03 0.03 0.03 0.04 0.03 0.04 0.04 0.07 0.10 0.23 0.67 1.18 1.42 1.33 1.13 1.00 1.24 1.60 1.91 2.22 2.01 1.72 1.55 1.43 1.21 0.98 0.78 0.82 0.84 0.93 1.08 1.37 1.25 1.17 1.30 1.69 1.55 1.27 1.15 1.29 1.58 1.86 1.84 1.80 1.89 2.04 1.69 1.77 1.97
0.02 0.02 0.01 0.02 0.02 0.02 0.03 0.06 0.14 0.25 0.66 0.93 1.17 1.26 1.30 1.30 1.37 1.59 1.91 2.19 2.39 2.28 2.04 1.82 1.66 1.44 1.38 1.28 1.18 1.09 1.15 1.29 1.30 1.42 1.32 1.66 1.81 1.68 1.63 1.81 1.91 2.11 2.30 2.69 2.55 2.67 2.52 2.43 2.25
0.01 0.01 0.01 0.01 0.02 0.02 0.03 0.08 0.18 0.29 0.55 0.61 0.71 0.86 1.16 1.39 1.72 2.00 2.16 2.51 2.63 2.72 2.51 2.36 2.22 2.12 2.09 1.94 1.74 1.38 1.44 1.42 1.44 1.65 1.65 1.76 2.05 2.14 2.22 2.22 2.18 2.03 2.36 2.78 3.01 2.71 2.99 3.00 2.58
0.01 0.01 0.01 0.01 0.02 0.03 0.04 0.10 0.20 0.34 0.49 0.56 0.64 0.84 1.11 1.45 1.72 2.14 2.44 2.85 2.86 2.89 3.01 3.09 2.97 2.85 2.83 2.63 2.43 2.15 1.94 2.03 1.97 1.98 2.11 2.27 2.50 2.67 2.72 2.58 2.49 2.26 2.27 2.57 2.77 2.74 2.99 2.88 2.71
0.01 0.02 0.05 0.05 0.05 0.07 0.14 0.24 0.38 0.51 0.56 0.75 0.84 1.09 1.26 1.56 1.90 2.01 2.21 2.47 2.79 3.06 3.51 3.76 3.80 3.71 3.67 3.55 3.21 2.83 2.64 2.65 2.79 2.86 2.86 2.79 2.92 3.18 3.07 2.87 2.51 2.37 2.42 2.57 2.53 2.55 2.60 2.46 2.38
0.01 0.04 0.13 0.13 0.08 0.09 0.18 0.48 0.58 0.62 0.73 0.94 0.99 1.23 1.52 1.61 1.95 2.08 2.12 2.33 2.91 3.37 3.92 4.21 4.36 4.59 4.47 4.41 4.07 3.57 3.30 3.20 3.16 3.21 3.20 3.10 3.18 3.08 3.03 2.74 2.35 2.43 2.50 2.48 2.50 2.34 2.39 2.41 2.45
0.04 0.08 0.15 0.21 0.13 0.13 0.21 0.52 0.64 0.67 0.86 1.02 1.17 1.21 1.37 1.59 2.01 2.30 2.43 2.59 3.10 3.69 4.35 4.72 5.19 5.49 5.38 5.10 4.59 4.11 3.97 3.76 3.56 3.51 3.42 3.25 3.04 2.89 2.98 2.68 2.56 2.52 2.51 2.36 2.15 2.44 2.58 2.60 2.60
0.05 0.07 0.15 0.25 0.16 0.15 0.28 0.50 0.71 0.79 0.95 1.12 1.18 1.17 1.31 1.59 1.81 2.17 2.45 2.86 3.32 3.75 4.50 5.12 5.67 5.87 5.62 5.07 4.63 4.45 4.26 3.94 3.68 3.39 3.14 2.84 2.70 2.54 2.71 2.48 2.43 2.54 2.60 2.40 2.40 2.65 2.66 2.40 2.45
0.05 0.07 0.17 0.24 0.15 0.17 0.31 0.49 0.70 0.87 1.02 1.08 1.26 1.26 1.45 1.70 1.85 2.23 2.58 3.02 3.46 3.97 4.70 5.31 5.71 5.68 5.46 5.08 4.69 4.39 3.91 3.61 3.33 3.04 2.81 2.55 2.29 2.20 2.48 2.27 2.53 2.45 2.32 2.16 2.16 2.27 2.30 2.03 2.26
0.06 0.10 0.21 0.24 0.15 0.16 0.31 0.54 0.80 0.90 0.88 0.91 1.13 1.25 1.32 1.51 1.80 2.14 2.65 2.94 3.27 3.78 4.29 4.74 4.72 4.39 4.25 4.19 4.11 3.85 3.85 3.71 3.55 3.29 3.05 2.64 2.46 2.31 2.15 2.28 2.14 2.10 2.18 1.99 1.90 2.08 2.08 1.83 2.14
0.06 0.09 0.15 0.21 0.23 0.24 0.34 0.68 0.94 0.98 0.87 0.82 0.86 0.98 1.11 1.25 1.44 1.78 2.33 2.62 2.79 3.22 3.56 3.62 3.49 3.31 3.34 3.38 3.36 3.44 3.65 3.65 3.57 3.41 3.13 2.83 2.67 2.55 2.41 2.27 2.07 2.00 1.86 1.90 1.92 1.97 1.98 1.88 1.89
0.09 0.07 0.08 0.11 0.20 0.42 0.48 0.86 1.16 1.26 1.17 0.95 0.85 0.96 1.04 1.14 1.20 1.48 1.81 2.02 2.25 2.44 2.61 2.62 2.69 2.71 2.72 2.74 2.72 2.65 2.69 2.85 3.06 3.28 3.30 3.24 3.02 2.77 2.49 2.29 2.09 1.90 1.75 1.89 1.63 1.72 1.97 2.02 1.77
0.06 0.05 0.06 0.10 0.15 0.30 0.42 0.67 1.12 1.39 1.53 1.19 0.95 0.88 0.83 0.97 1.22 1.42 1.51 1.63 1.72 1.75 1.88 1.94 2.23 2.55 2.64 2.66 2.75 2.67 2.40 2.37 2.41 2.56 2.70 2.70 2.69 2.54 2.24 2.13 2.09 1.91 1.74 1.72 1.68 1.90 1.89 1.85 1.76
0.07 0.10 0.16 0.24 0.37 0.61 0.59 0.64 1.02 1.27 1.38 1.11 0.93 0.87 0.74 0.76 0.94 1.15 1.38 1.43 1.38 1.37 1.53 1.74 2.05 2.43 2.63 2.67 2.64 2.61 2.51 2.47 2.37 2.34 2.36 2.25 2.23 2.19 2.05 1.98 2.00 1.86 1.74 1.71 1.68 1.78 1.84 1.90 1.94
0.08 0.16 0.48 0.83 1.16 1.20 0.70 0.68 0.93 0.97 0.90 0.91 0.78 0.73 0.77 0.70 0.69 0.70 0.88 1.10 1.07 1.04 1.18 1.46 1.67 1.94 2.15 2.24 2.26 2.18 2.29 2.40 2.27 2.13 2.03 1.94 1.81 1.74 1.76 1.84 1.92 1.78 1.71 1.77 1.87 1.82 1.76 1.84 1.94
0.08 0.12 0.36 0.61 0.79 0.92 0.74 1.08 1.21 0.90 0.75 0.65 0.54 0.51 0.58 0.54 0.50 0.48 0.55 0.69 0.90 0.90 0.93 1.05 1.31 1.50 1.68 1.78 1.90 2.00 2.17 2.28 2.22 2.36 2.15 1.99 1.70 1.58 1.63 1.82 1.88 1.79 1.70 1.66 1.91 1.90 1.90 1.96 1.94
0.09 0.08 0.13 0.22 0.35 0.61 0.87 1.11 1.09 0.87 0.83 0.63 0.45 0.40 0.41 0.40 0.39 0.40 0.48 0.66 0.67 0.66 0.70 0.80 1.03 1.18 1.35 1.53 1.70 1.77 1.74 1.76 1.89 2.06 2.07 1.92 1.83 1.66 1.74 1.80 1.94 1.98 2.02 2.02 2.13 2.06 2.06 2.21 2.18
0.10 0.09 0.10 0.16 0.29 0.47 0.78 1.13 1.20 1.06 0.93 0.75 0.64 0.47 0.38 0.38 0.38 0.38 0.42 0.49 0.49 0.48 0.60 0.81 0.97 0.99 1.24 1.55 1.73 1.62 1.60 1.50 1.64 1.72 1.77 1.83 1.78 1.78 1.80 1.80 1.85 1.95 2.03 2.08 2.19 2.17 2.23 2.40 2.41
0.14 0.11 0.11 0.14 0.17 0.31 0.67 0.88 0.78 0.83 0.77 0.68 0.61 0.52 0.46 0.42 0.42 0.43 0.42 0.42 0.52 0.47 0.55 0.70 0.82 0.96 1.24 1.56 1.75 1.73 1.58 1.57 1.68 1.61 1.59 1.72 1.76 1.75 1.79 1.78 1.75 1.73 1.85 2.02 2.19 2.18 2.33 2.45 2.50
0.14 0.14 0.14 0.20 0.19 0.22 0.37 0.59 0.47 0.57 0.67 0.63 0.48 0.41 0.38 0.32 0.35 0.34 0.31 0.35 0.35 0.35 0.47 0.77 1.09 1.44 1.59 1.83 2.05 2.05 1.76 1.60 1.53 1.40 1.42 1.62 1.81 1.83 1.80 1.76 1.73 1.67 1.75 1.99 2.16 2.29 2.55 2.67 2.58